Flag for Brazil Weather past 2 weeks in Niterói, Rio de Janeiro, Brazil

Now
81 °F

Partly cloudy.


Feels Like: 85 °F
Forecast: 78 / 89 °F
Wind: 8 mph from Southwest

Location: Rio De Janeiro Airport

Current Time: Apr 21, 2015 at 6:53:51 PM

Latest Report: Apr 21, 2015 at 6:00 PM


Visibility: N/A

Pressure: 29.86 "Hg

Humidity: 79%

Dew point: 73 °F

Location of NiteróiLocation

Historic Weather in Niterói — Graph

°F

Niterói temperature yesterday

Maximum temperature yesterday: 84 °F (at 11:00 AM)
Minimum temperature yesterday: 73 °F (at 6:00 AM)
Average temperature yesterday: 80 °F

Past Weeks' High & Low Weather Summary

 TemperatureHumidityPressure
High93 °F (Apr 21, 2:00 PM)100% (Apr 21, 7:00 AM)30.12 "Hg (Apr 21, 7:00 AM)
Low68 °F (Apr 8, 6:00 AM)47% (Apr 21, 2:00 PM)29.74 "Hg (Apr 6, 5:00 PM)
Average77 °F78%29.97 "Hg
* Reported Apr 6 5:00 PM — Apr 21 5:00 PM, Niterói, Weather by CustomWeather, © 2015

Note: Actual official high and low records may vary slightly from our data, if they occured in-between our weather recording intervals... More about our weather records

Advertising

Niterói weather history for previous 24 hours

 ConditionsComfort  
Time TempWeatherWind HumidityBarometerVisibility
5:00 PM
Tue, Apr 21
81 °FPartly cloudy.16 mph79%29.86 "HgN/A
4:00 PM84 °FBroken clouds.16 mph70%29.83 "HgN/A
3:00 PM90 °FPartly sunny.13 mph52%29.83 "HgN/A
2:00 PM93 °FScattered clouds.12 mph47%29.80 "HgN/A
1:00 PM86 °FPartly sunny.3 mph70%29.80 "Hg4 mi
12:00 PM84 °FFog.6 mph84%29.83 "Hg3 mi
11:00 AM81 °FFog.6 mph84%29.83 "Hg3 mi
10:00 AM81 °FClear.7 mph84%29.83 "Hg4 mi
9:00 AM79 °FClear.7 mph89%29.83 "Hg5 mi
8:00 AM77 °FClear.8 mph94%29.83 "Hg5 mi
7:00 AM75 °FClear.8 mph100%29.80 "Hg5 mi
6:00 AM75 °FClear.7 mph94%29.80 "Hg5 mi
11:00 PM
Mon, Apr 20
79 °FClear.3 mph84%29.86 "Hg10 mi
10:00 PM79 °FClear.3 mph84%29.86 "Hg10 mi
9:00 PM77 °FClear.2 mph89%29.86 "Hg10 mi
8:00 PM81 °FClear.2 mph79%29.83 "Hg10 mi
7:00 PM79 °FClear.9 mph89%29.80 "Hg10 mi
6:00 PM79 °FClear.15 mph84%29.80 "Hg10 mi
Weather by CustomWeather, © 2015

See weather overviewHow to use our weather pages